RH
101 100 99 97 92 88 83 78 73 69 66 63 60 59 57 56 55 54 51 49 46 45 44 45 45 45 46 44 45 45 45 47 50 53 54 53 52 50 46 44 41 39 37 36 34 33 32 29 26 22 19 16 15 17 20 23 26 29 32 33 32 31 30 29 29 27 28 33 33 31 37 46 51 55 62 71 79 86 89 92 98 101 100 98 92
100 98 93 88 83 76 71 66 62 58 54 49 45 44 44 43 42 40 40 39 37 35 34 34 35 36 35 33 32 32 32 33 34 36 39 41 42 41 39 37 36 35 34 33 32 30 30 28 27 23 20 17 13 12 14 17 20 22 25 28 30 31 30 29 29 28 26 25 27 26 25 29 33 36 39 44 52 65 78 82 88 96 99 100 100
92 87 80 72 63 55 50 47 43 40 37 33 29 26 25 23 22 22 23 25 25 26 25 24 25 25 24 23 22 20 20 19 20 22 25 26 28 28 28 27 27 28 27 26 26 25 25 24 23 22 19 16 13 10 10 11 15 18 20 22 24 26 28 29 28 28 27 26 25 25 24 25 26 28 29 30 31 37 51 64 73 85 93 96 100
79 69 57 46 36 30 26 22 20 21 21 21 18 15 12 10 10 12 15 19 22 23 23 22 21 19 18 17 16 15 14 14 13 14 15 15 17 17 17 17 18 19 19 19 19 19 19 19 18 18 16 14 12 9 7 7 10 13 16 17 19 21 22 25 26 27 27 27 26 25 26 26 26 27 27 28 29 28 31 38 47 62 74 84 95
58 47 36 26 22 17 12 11 13 14 16 15 13 11 10 8 8 12 18 23 28 31 32 32 31 28 25 21 19 18 16 16 16 14 14 12 12 12 12 12 12 12 12 12 12 13 13 13 13 13 12 11 9 7 6 5 7 9 12 14 14 15 17 18 20 23 24 23 24 24 24 25 25 26 24 23 25 26 27 27 28 35 44 56 74
39 34 32 27 23 16 10 15 19 23 25 24 20 16 16 16 14 14 18 25 32 36 40 44 45 45 44 37 28 26 26 25 25 22 20 18 15 14 12 11 10 9 9 8 8 9 9 9 9 9 9 8 7 6 5 5 5 7 9 11 11 11 12 13 14 16 17 17 17 18 18 19 20 20 19 17 18 19 20 23 24 24 26 31 46
34 33 32 27 24 21 20 24 31 40 40 35 32 29 29 38 45 45 44 47 51 52 52 54 53 54 60 59 43 33 31 30 30 29 26 26 24 22 20 16 13 10 8 7 7 6 7 7 7 7 6 6 5 5 4 4 5 6 7 8 9 9 9 9 10 11 11 12 12 12 12 12 13 13 12 13 14 15 14 15 17 20 22 23 27
27 23 19 14 17 21 25 27 30 36 33 26 30 33 36 45 55 61 64 69 76 79 76 72 69 71 80 83 64 46 42 38 35 33 30 29 29 28 27 24 21 16 12 8 6 6 6 6 6 6 6 5 5 5 4 5 5 5 6 7 7 7 8 7 7 8 8 8 9 9 9 8 8 8 8 10 10 11 11 11 12 13 16 19 21
14 11 9 12 20 25 33 38 39 42 40 36 35 34 34 36 38 43 50 62 76 88 93 90 89 93 98 99 86 68 60 54 47 41 35 32 30 29 28 28 26 23 19 13 9 7 6 7 8 8 7 6 7 8 7 6 6 5 6 7 8 8 8 9 8 8 7 7 7 7 7 7 7 6 6 7 7 8 8 9 10 10 11 13 17
12 11 15 26 37 45 52 59 62 64 64 63 59 51 44 37 34 34 37 50 70 85 96 99 100 101 99 102 99 84 73 68 63 55 46 41 37 32 29 28 27 25 23 20 14 11 8 7 8 10 13 12 13 17 14 8 7 7 7 10 13 13 13 13 11 11 10 9 8 8 8 8 7 7 7 6 6 6 7 7 7 8 9 10 12
25 29 39 51 58 63 64 65 66 69 71 71 72 70 65 57 50 46 41 47 65 83 94 98 102 103 98 98 98 89 83 81 75 65 58 53 47 42 38 34 28 25 24 22 19 15 12 10 9 10 16 20 27 31 23 13 10 10 12 15 19 22 22 20 17 16 15 13 12 12 11 10 10 9 9 9 8 6 6 7 7 6 7 8 10
45 52 62 66 66 67 66 66 68 73 75 73 71 73 74 73 70 67 62 53 49 67 89 93 95 100 98 98 98 96 94 91 83 75 69 65 58 52 46 38 30 26 25 23 20 18 15 13 11 12 15 22 33 37 28 19 15 16 19 22 25 27 27 26 23 21 22 20 18 18 17 16 15 14 13 14 13 12 9 7 7 9 8 6 8
62 66 69 66 65 70 73 75 78 80 80 75 72 74 75 76 76 75 79 72 50 52 81 95 95 99 100 99 100 100 100 97 93 88 83 78 72 62 50 39 32 29 28 26 22 19 16 13 13 13 15 20 29 35 35 31 23 19 23 27 28 30 31 31 28 25 28 29 26 26 27 25 23 22 22 23 22 22 23 17 12 13 12 8 7
70 69 70 70 72 79 81 80 81 82 79 77 75 75 74 75 78 75 80 85 64 41 50 72 89 99 100 100 101 100 101 101 101 98 94 88 78 66 53 42 34 29 26 26 24 21 17 14 13 13 15 18 24 32 40 43 33 23 24 28 30 32 35 36 32 28 32 36 34 35 38 37 36 36 35 34 32 32 33 31 27 27 24 16 11
72 71 76 82 84 86 83 77 79 79 76 79 79 77 76 74 75 76 77 82 74 45 25 32 58 80 90 96 99 99 100 99 98 97 94 91 84 74 59 42 29 22 19 19 20 19 18 15 13 12 13 16 21 30 41 49 43 30 25 27 30 34 38 39 37 32 33 36 38 41 46 47 47 49 49 46 45 44 41 39 41 42 39 29 21
74 75 82 89 88 90 86 76 77 79 77 80 80 78 80 78 75 77 77 78 79 67 41 21 23 39 54 68 77 83 85 85 86 88 86 84 78 66 47 29 19 16 13 13 14 17 17 15 13 11 11 13 18 27 40 51 49 37 30 31 33 35 37 40 40 36 33 34 37 42 48 51 53 58 60 58 56 55 52 50 50 50 50 44 34
78 82 86 87 85 88 88 82 81 82 80 79 79 79 80 81 79 77 78 80 82 80 70 51 35 29 30 36 42 48 52 57 63 66 64 60 57 51 44 40 39 33 23 16 13 14 15 14 12 10 10 12 16 25 40 51 51 43 39 39 40 41 39 40 40 36 31 31 34 38 43 47 51 58 62 62 61 59 59 59 56 55 58 57 45
83 86 88 88 85 86 86 85 85 83 80 78 77 79 79 79 80 79 79 81 83 84 86 85 79 71 65 62 61 62 63 66 70 72 74 76 78 81 82 83 80 71 57 41 26 16 12 12 11 10 10 11 15 23 39 51 53 48 46 45 45 47 45 41 40 35 30 29 31 34 39 41 45 52 57 59 60 59 59 60 58 54 58 59 54
83 84 85 84 83 84 83 83 83 82 81 79 77 78 78 79 80 81 82 83 85 87 89 92 95 95 94 95 95 95 95 94 95 97 99 100 101 100 100 99 98 94 86 74 55 32 16 11 10 10 10 11 14 24 38 49 53 50 48 47 47 49 48 44 40 36 32 30 30 32 36 38 41 47 51 53 56 57 55 56 58 56 56 57 56
84 80 79 78 78 81 82 80 79 80 80 80 80 79 79 80 82 84 85 86 87 88 89 90 92 94 96 97 99 100 101 101 101 102 102 103 104 103 101 99 97 96 93 88 77 55 31 16 11 9 9 11 15 25 38 48 51 49 46 46 48 51 51 46 41 37 34 32 31 32 34 37 43 47 47 47 49 53 53 51 53 55 58 58 56
84 79 76 76 78 78 80 80 79 80 80 80 81 80 79 82 83 83 83 84 85 87 89 90 92 94 95 96 98 99 100 99 98 99 100 101 102 103 103 102 98 94 91 89 84 72 52 31 16 11 9 11 17 25 36 45 48 46 43 43 45 49 52 50 42 36 34 33 32 32 33 36 43 46 44 45 45 48 50 48 49 52 55 58 57
81 81 78 76 77 76 77 79 79 79 80 81 82 82 82 83 82 81 82 84 86 88 90 92 94 96 96 96 97 96 97 98 98 99 100 100 100 100 101 103 103 98 90 86 83 78 66 48 28 17 12 13 18 24 33 40 43 42 39 38 40 44 50 51 45 36 32 31 31 31 31 34 40 43 42 43 44 46 48 49 50 50 51 54 55
80 80 78 77 78 78 78 78 78 79 80 82 83 83 84 82 80 81 84 86 89 90 92 94 95 96 96 98 98 98 98 99 99 100 100 100 101 100 100 101 103 101 92 84 80 76 70 58 41 28 20 18 20 24 31 36 38 38 37 35 37 42 47 50 48 41 34 33 32 31 32 34 37 40 41 41 44 49 54 56 54 51 49 51 52
81 78 76 77 79 80 79 77 78 81 81 83 83 83 83 81 80 83 87 88 90 92 93 94 96 98 99 100 100 99 99 99 100 100 100 100 100 100 101 100 101 101 93 83 77 74 70 62 52 40 31 25 24 25 28 32 34 34 33 33 35 40 46 49 50 47 40 36 35 34 35 36 38 40 41 44 49 55 60 61 58 54 51 49 50
79 75 74 78 81 82 82 81 82 83 83 82 81 80 80 80 81 85 88 89 90 91 93 94 96 99 100 100 100 100 100 100 100 100 100 100 100 100 100 100 100 101 95 84 75 71 69 64 58 51 43 37 32 30 29 30 31 32 32 35 38 42 45 48 50 48 42 38 37 39 38 38 40 41 43 49 56 61 63 64 63 61 57 55 57
76 74 75 79 83 85 86 85 85 85 83 78 78 79 79 80 83 85 86 88 89 90 93 94 96 99 100 100 100 100 100 100 100 100 100 100 100 100 100 100 100 102 100 90 78 71 67 65 62 58 53 48 43 39 37 36 36 37 38 40 43 45 46 48 49 47 44 41 40 41 40 39 41 43 47 54 59 62 65 65 65 67 68 68 71
76 74 77 82 84 86 87 87 86 86 82 77 76 76 76 78 82 84 85 86 88 89 91 92 94 97 98 99 100 100 100 100 100 100 100 100 100 100 100 101 100 100 101 98 90 81 72 67 63 60 58 55 51 47 43 43 42 42 42 43 45 47 47 48 49 48 45 42 40 40 39 39 41 44 50 56 60 63 66 67 68 71 78 81 83
76 73 76 80 83 85 87 86 85 84 80 76 75 73 73 77 81 85 87 87 88 90 91 93 94 95 95 97 99 100 100 100 100 100 100 100 100 100 100 100 100 100 100 101 100 96 90 83 75 67 62 59 57 55 51 49 47 46 46 46 46 47 48 48 49 49 45 41 40 40 39 39 41 45 53 59 62 64 66 69 71 73 81 87 90
75 73 74 78 82 84 85 83 83 82 76 74 74 70 70 76 80 84 87 87 87 90 92 95 96 96 97 97 97 99 100 100 100 100 101 100 100 100 100 100 100 100 100 100 100 100 100 98 94 87 80 72 64 60 57 55 52 50 49 48 48 48 47 47 47 47 45 43 42 41 40 39 42 47 54 60 64 64 67 73 75 75 82 91 96
75 74 72 76 80 83 83 82 82 80 74 71 71 69 68 73 78 82 85 85 86 90 94 97 98 99 100 100 100 99 99 100 100 101 101 101 101 100 100 101 100 101 102 101 100 100 100 100 101 100 97 92 84 74 65 60 57 54 52 49 49 48 47 47 47 46 45 44 44 43 42 42 44 49 55 61 64 65 69 75 78 77 82 90 97
73 74 71 74 78 81 82 82 81 79 74 70 70 69 69 71 75 80 84 85 86 89 95 98 100 101 101 101 101 101 98 98 100 102 101 101 101 101 100 100 100 101 101 100 100 100 100 100 100 100 100 100 99 94 85 74 64 59 56 53 51 51 49 49 49 49 49 47 46 45 44 45 47 50 57 61 63 67 73 78 79 78 80 87 96
68 71 70 72 76 79 80 80 80 79 73 69 69 70 71 70 71 75 82 84 85 89 94 97 99 102 102 101 101 102 100 98 99 101 101 100 100 100 100 100 100 100 101 101 101 101 101 101 100 100 101 100 100 101 100 92 81 70 62 57 54 53 53 52 52 53 53 52 51 49 47 48 51 55 60 62 63 71 80 82 80 78 80 88 96
64 67 70 71 73 76 79 80 81 80 74 68 66 68 70 69 66 69 75 80 82 86 90 95 98 100 102 102 101 101 102 100 99 100 100 100 101 100 100 100 100 100 100 100 100 101 101 101 100 100 100 100 100 101 102 101 98 91 80 70 63 58 55 54 54 54 54 53 53 53 52 53 55 58 61 62 66 78 85 85 85 88 91 95 99
61 64 68 70 71 75 79 83 83 82 78 72 67 66 67 66 66 68 70 74 78 83 87 91 95 98 99 99 98 99 99 100 100 100 99 100 102 102 101 100 100 100 101 100 100 100 100 101 101 101 99 98 98 99 100 101 101 101 99 93 85 77 70 64 60 57 57 57 57 57 58 59 60 62 65 68 75 84 89 90 95 99 100 100 100
60 63 65 68 71 73 77 83 85 84 82 77 71 67 65 65 68 71 71 72 75 80 83 86 91 95 96 95 95 95 96 98 100 101 101 101 102 102 101 101 101 100 100 100 101 101 102 102 102 102 101 99 99 98 97 96 93 92 94 97 97 95 90 85 79 72 68 65 63 63 64 66 69 72 76 80 84 87 89 95 100 101 100 101 101
58 61 62 64 68 71 73 79 83 85 85 81 76 71 65 63 67 71 72 73 74 76 79 81 85 89 93 95 94 92 93 94 95 98 101 100 99 100 101 101 102 101 100 101 101 101 103 105 104 103 101 100 101 101 99 96 92 87 84 86 89 92 95 96 92 88 85 81 77 74 73 74 76 80 83 87 88 87 89 96 100 100 100 100 99
57 61 63 64 67 71 73 77 82 86 86 83 81 78 73 68 69 71 72 73 73 74 76 77 80 86 92 94 93 90 89 89 89 91 94 95 94 95 98 99 100 101 101 100 101 102 101 101 101 102 103 101 100 100 99 98 97 92 84 80 79 80 86 92 91 86 85 85 86 86 86 85 84 84 87 92 92 87 88 94 96 96 97 97 97
56 59 63 64 65 69 73 76 81 85 87 86 84 81 79 77 75 74 73 73 74 74 73 75 80 86 89 88 88 90 88 87 87 86 85 88 89 89 95 97 96 100 104 102 102 101 97 95 96 97 100 101 101 101 98 96 96 94 85 77 73 70 72 81 87 84 80 79 81 85 89 91 92 92 92 96 97 92 89 92 94 96 98 99 99
56 59 62 63 64 66 70 75 79 84 88 89 86 81 80 81 80 79 76 73 73 73 73 77 82 86 87 85 85 88 88 88 90 85 80 83 84 85 94 97 92 96 102 101 99 100 97 94 95 96 97 99 101 102 101 97 96 95 88 79 71 64 60 64 73 79 81 83 84 85 88 92 96 98 98 99 100 98 94 94 97 99 100 100 100
55 57 60 63 64 64 67 72 77 81 85 87 85 82 79 79 79 80 79 74 70 70 74 81 84 85 88 89 88 87 86 87 90 87 82 82 83 84 94 98 91 92 98 97 96 100 100 98 98 100 100 100 100 102 103 100 98 96 93 88 82 75 69 63 61 63 68 76 84 87 90 93 97 99 101 102 102 100 97 96 100 102 100 99 100
54 55 57 62 65 65 65 68 72 76 80 84 85 82 79 79 79 77 77 75 72 71 74 79 82 83 88 92 92 89 85 85 90 90 86 86 85 86 94 97 91 91 96 96 96 100 102 101 101 101 101 100 101 102 103 102 101 98 95 93 90 89 87 80 72 66 62 65 74 82 86 93 99 100 100 102 102 101 99 98 100 102 100 98 101
53 53 54 59 64 67 67 68 71 75 78 81 84 82 80 81 79 76 75 75 74 75 75 76 78 82 87 91 94 91 86 85 90 91 90 89 87 88 94 95 91 93 98 98 97 101 102 101 101 101 101 100 101 102 102 101 102 101 99 95 90 88 87 86 83 81 75 69 72 77 80 88 98 101 100 100 101 101 101 99 99 100 100 100 101
52 52 53 54 59 65 68 68 71 74 76 78 82 83 83 83 82 79 78 77 76 75 76 76 77 81 86 91 94 91 85 84 89 90 88 87 85 86 91 92 89 92 97 95 92 95 98 100 102 102 101 100 100 101 102 101 101 101 101 100 96 91 86 83 80 81 81 79 77 78 79 84 94 101 100 99 101 102 100 97 95 97 100 101 101
51 52 52 52 55 60 65 69 71 72 74 76 78 81 84 86 86 83 80 80 80 78 77 79 80 82 86 90 93 91 84 80 85 88 86 83 84 86 87 90 91 92 90 87 85 85 88 93 98 100 100 100 100 100 101 101 101 101 101 101 101 98 95 91 86 82 81 80 80 82 83 83 90 99 102 99 100 102 100 97 95 96 98 100 101
50 51 52 52 52 55 59 66 71 73 73 74 74 77 82 86 88 86 83 81 82 81 81 81 83 84 86 90 95 96 89 81 80 84 84 82 84 86 85 87 91 90 84 82 84 84 84 87 92 96 99 100 101 101 101 101 101 101 100 100 101 101 101 100 98 94 90 86 83 85 87 83 83 94 103 101 97 100 102 99 97 96 98 100 101
47 50 51 51 51 53 56 61 66 71 75 75 73 75 79 84 86 88 87 84 82 83 85 85 85 86 88 90 97 102 99 90 83 83 85 84 83 84 85 86 89 85 81 83 86 86 85 87 88 93 96 98 99 101 101 102 101 101 101 101 101 102 102 102 103 101 98 95 90 89 92 89 83 88 99 102 98 98 101 102 100 100 101 101 100
38 45 48 49 50 52 54 56 59 64 70 74 76 76 77 79 82 85 88 88 86 87 89 87 86 89 91 94 98 102 103 99 91 87 90 90 88 89 91 90 86 81 81 85 86 83 83 85 86 90 93 93 94 97 100 101 101 101 101 100 100 102 101 101 102 102 101 100 97 94 95 96 92 89 94 101 101 100 101 103 103 103 102 100 98
27 36 43 47 48 49 51 53 55 58 61 67 73 77 77 76 76 80 86 89 90 92 94 90 86 89 93 96 99 102 103 102 99 95 95 94 93 93 93 90 84 81 83 87 86 82 82 83 85 89 92 90 89 92 97 100 98 95 95 95 96 99 99 97 97 99 101 102 102 100 97 98 99 97 96 99 101 100 101 102 103 103 102 101 100
16 24 32 39 44 47 49 51 52 54 56 60 66 72 76 77 75 75 79 84 89 94 96 93 88 89 92 93 97 101 102 102 103 102 100 99 97 97 96 93 90 88 89 89 87 84 83 83 85 88 91 91 88 87 92 96 92 89 91 92 92 93 94 93 94 98 101 102 102 102 100 98 99 101 101 101 101 100 100 101 101 102 102 101 101
8 13 21 30 39 43 46 49 51 53 54 56 59 64 70 75 77 76 75 78 83 89 94 94 90 89 89 90 92 96 99 100 101 102 102 101 101 100 100 100 98 95 93 90 88 88 87 87 88 91 94 96 93 90 93 97 94 91 92 95 96 94 92 92 94 97 101 103 102 101 101 100 99 100 101 102 102 102 101 100 100 100 100 100 100
6 8 11 19 28 37 44 49 52 54 54 55 56 57 61 66 72 76 77 77 78 81 86 90 90 89 90 91 91 93 95 97 97 98 99 101 101 101 102 102 99 95 92 89 89 89 89 90 91 92 95 98 97 95 99 102 97 93 95 97 97 95 94 95 97 99 101 103 102 100 100 101 100 100 101 101 101 102 101 101 101 100 100 100 100
Wind_Speed
16 21 26 31 35 39 43 46 49 51 52 53 53 54 54 54 55 57 58 59 59 58 58 58 58 57 58 59 58 57 57 56 57 57 57 57 55 53 51 50 49 49 50 52 53 54 55 55 55 53 52 51 51 54 56 58 60 61 61 61 60 60 59 57 56 54 54 53 53 52 52 52 53 53 53 54 55 53 51 50 48 48 49 49 47
24 30 36 40 43 46 49 51 54 57 59 61 62 62 62 62 63 64 64 65 65 64 64 64 64 64 64 64 64 63 62 62 61 61 61 61 60 58 56 55 54 53 53 53 54 55 56 57 57 57 55 54 53 54 56 58 60 62 63 63 63 63 63 61 61 59 58 57 57 56 55 55 54 54 54 53 54 54 55 54 53 50 48 49 48
34 38 43 46 50 53 55 56 58 60 62 64 66 67 67 67 67 67 67 67 67 66 66 66 66 65 64 64 64 64 63 63 63 63 63 62 61 60 58 57 56 55 55 54 54 55 56 57 58 58 58 57 56 55 56 58 60 62 63 64 65 65 65 65 65 64 63 62 61 61 60 60 59 57 57 56 55 55 55 56 57 55 52 50 49
41 45 50 54 58 60 61 63 63 63 63 64 65 66 66 67 65 64 63 63 62 61 60 60 60 60 59 57 57 58 58 57 58 58 59 59 59 59 58 57 56 56 55 54 54 54 55 56 57 57 58 58 57 57 57 59 61 62 63 64 65 66 67 67 68 67 66 65 65 65 65 65 65 63 63 63 61 60 58 57 57 59 58 56 53
50 55 59 62 64 65 66 66 64 62 61 60 60 61 61 61 60 59 58 57 55 53 52 51 52 53 52 50 48 48 48 48 49 50 51 52 54 54 54 54 54 54 54 53 52 52 53 53 55 56 57 57 57 58 58 60 61 63 63 64 64 66 67 68 69 69 69 68 68 68 68 69 70 69 69 69 67 65 64 62 61 60 60 60 59
60 62 63 66 66 66 65 62 59 57 55 55 55 55 55 54 54 53 52 51 50 49 47 46 46 47 46 44 41 38 38 38 39 41 43 45 47 49 50 50 50 50 50 50 50 51 51 52 53 54 55 56 57 58 59 60 62 63 64 64 64 64 65 67 68 69 69 70 70 70 70 71 72 72 72 71 71 69 68 67 66 64 63 62 62
64 64 65 66 65 63 60 56 53 52 51 51 51 51 49 47 46 45 44 44 44 44 43 43 43 44 44 44 41 36 35 35 36 38 38 39 41 42 44 46 47 48 48 47 48 49 50 50 51 52 54 55 56 58 59 60 62 63 63 63 63 63 63 65 66 67 68 68 69 70 70 71 72 73 73 73 73 72 71 70 69 68 67 66 65
64 66 66 65 60 55 52 50 49 48 49 48 47 47 44 42 41 40 40 39 39 39 39 40 40 40 41 44 44 42 41 41 40 40 40 39 39 39 41 42 44 45 46 47 46 48 49 50 50 52 53 54 55 57 59 60 62 63 62 61 61 61 61 62 63 64 65 66 66 67 69 70 70 71 73 74 74 75 74 72 71 70 69 69 68
65 64 60 54 49 46 46 46 45 45 46 45 44 44 43 43 42 41 40 39 38 37 37 38 38 36 38 42 45 45 46 46 46 46 45 44 43 42 42 42 43 43 45 46 46 47 49 49 49 50 51 53 54 56 58 60 61 61 61 59 58 58 58 58 59 60 62 62 62 63 65 67 68 69 70 72 73 75 76 75 73 72 71 70 70
58 52 47 43 42 44 45 45 46 47 47 47 46 45 45 44 44 43 41 38 37 37 37 37 37 37 38 40 42 46 48 49 50 50 49 48 48 47 46 45 44 43 43 45 46 47 48 49 48 48 49 52 53 54 57 59 59 59 59 56 54 54 54 54 55 55 56 58 58 59 60 62 63 65 66 68 71 73 75 76 75 74 74 72 71
45 43 42 43 45 46 47 48 48 49 50 49 47 46 46 45 44 44 42 40 38 37 37 38 38 39 40 40 44 48 50 50 52 52 52 52 52 51 51 49 47 44 43 43 45 46 48 49 48 46 47 49 51 53 57 58 58 58 56 53 51 50 50 51 52 52 52 53 54 54 56 57 58 60 62 63 65 68 71 74 74 73 75 75 73
42 45 46 46 48 49 50 51 50 50 50 50 48 46 46 45 44 43 42 41 40 39 39 39 40 42 43 44 47 50 51 52 54 55 55 56 56 54 53 52 49 45 43 42 43 45 48 48 47 45 44 47 50 54 57 57 56 55 53 50 49 48 48 48 49 49 49 50 50 50 51 53 54 56 58 58 60 63 66 69 71 71 73 75 75
45 46 47 49 51 51 53 52 49 49 49 49 48 45 43 43 42 42 40 40 40 39 39 40 41 42 44 46 48 50 52 54 55 57 58 59 59 58 55 52 50 46 44 42 41 42 46 48 47 45 43 45 50 53 55 55 54 53 50 49 48 47 47 47 48 48 47 47 47 46 47 49 51 52 53 53 54 55 57 61 65 66 69 73 74
46 48 50 52 53 52 53 51 48 47 47 47 45 43 41 40 39 39 37 36 38 39 39 40 41 42 44 46 48 50 52 54 57 59 61 62 62 60 58 55 52 48 45 43 42 42 44 46 47 46 44 44 47 50 52 52 52 51 50 49 48 47 47 47 47 47 46 44 44 44 44 45 46 47 48 49 50 51 52 54 56 58 62 68 71
50 51 53 53 52 51 50 47 44 45 44 43 42 40 39 38 37 36 36 36 39 40 39 39 41 43 45 47 49 52 54 57 59 60 62 63 63 62 60 59 56 52 48 44 43 42 42 43 46 46 45 44 45 48 49 49 49 50 50 49 49 48 48 47 47 47 46 44 43 43 43 42 43 43 44 45 46 47 49 49 50 52 55 61 65
53 53 52 50 49 48 48 47 44 43 43 41 39 38 38 37 36 35 35 36 38 39 38 37 39 42 44 47 50 52 55 57 59 60 61 62 63 63 62 60 56 52 48 43 41 41 40 42 45 47 46 44 43 45 47 47 47 48 49 49 50 49 48 47 47 47 46 45 44 44 43 42 42 42 42 43 42 43 44 45 46 48 50 54 58
53 53 49 47 45 44 46 47 45 44 43 40 38 36 35 35 35 34 34 34 36 37 37 35 36 38 40 43 45 48 52 54 56 58 59 59 60 59 57 55 52 49 45 41 38 38 39 41 44 45 45 43 42 44 46 46 46 46 46 47 48 48 49 48 48 47 47 46 45 45 44 43 43 43 43 42 41 41 42 43 44 45 45 47 52
52 50 47 46 45 43 43 44 43 42 40 37 35 33 31 31 32 32 32 32 33 35 34 33 34 35 36 37 39 41 44 46 48 50 51 51 50 50 49 48 47 45 43 39 37 36 38 40 42 43 43 42 41 42 44 45 45 44 44 44 45 46 48 49 48 48 48 48 47 45 45 45 44 45 45 44 43 42 42 43 44 44 43 43 46
49 45 43 43 42 41 40 39 37 37 36 35 33 31 30 29 29 29 29 29 29 29 29 28 28 30 31 31 32 32 34 35 36 37 38 39 39 39 40 40 41 41 39 37 36 36 36 38 39 41 41 40 40 41 43 44 44 43 42 42 43 45 47 49 49 50 49 49 48 47 46 46 45 46 46 46 45 44 44 44 44 44 43 43 43
46 43 41 41 40 39 38 36 36 35 34 33 31 30 29 28 27 26 25 25 25 24 23 23 23 23 24 25 26 26 27 28 28 28 29 30 31 32 32 33 34 36 36 35 35 35 35 36 37 39 39 38 37 39 41 43 43 42 41 41 41 43 46 49 50 51 50 50 49 49 48 46 46 47 46 45 46 45 45 45 46 46 44 44 45
45 44 42 41 38 37 35 35 36 35 34 33 31 30 29 28 27 25 23 23 22 21 21 21 22 22 23 24 25 25 26 26 26 26 26 25 25 25 26 27 29 30 31 32 32 33 34 34 35 37 37 36 35 37 40 41 42 41 40 40 39 41 44 48 51 52 51 51 50 49 49 47 46 47 46 45 45 45 46 46 47 49 47 45 46
43 42 41 40 38 37 36 34 34 33 33 32 31 30 28 26 24 23 22 22 21 21 21 21 22 22 23 24 25 25 26 26 26 26 25 24 24 23 22 22 23 24 25 27 29 30 31 32 33 34 35 34 34 35 37 39 41 40 39 39 38 39 42 47 52 53 53 52 51 50 49 47 46 47 46 45 45 45 45 47 47 49 49 47 46
42 40 39 38 37 36 35 34 33 33 32 32 31 30 27 24 22 21 21 21 21 21 21 22 22 22 24 25 25 26 26 26 25 25 24 24 23 23 22 20 19 18 19 21 24 26 28 30 31 32 33 33 33 33 35 37 38 38 38 38 38 39 42 47 51 54 54 53 53 51 49 47 47 47 46 46 45 44 44 45 47 49 49 48 47
40 38 37 36 36 35 34 34 33 33 32 31 30 27 24 23 21 20 20 21 21 21 21 22 22 23 25 26 26 27 27 27 27 26 26 24 23 22 21 20 18 16 15 15 18 22 25 27 29 30 31 32 32 32 33 35 36 36 36 37 37 39 43 47 50 53 54 54 53 52 49 48 47 47 46 45 44 43 42 43 45 47 48 48 47
40 38 37 35 35 35 34 34 33 32 32 30 27 25 23 22 20 20 21 21 21 21 21 22 24 25 26 27 28 28 28 29 28 28 28 26 24 23 21 20 18 15 13 11 12 16 20 23 26 28 29 30 31 32 33 34 35 35 36 37 38 40 43 46 49 51 53 53 52 51 49 48 47 46 45 44 43 42 42 42 44 45 46 46 46
40 37 36 35 35 35 35 34 33 32 30 27 25 23 22 20 20 20 21 21 21 21 22 23 24 26 27 28 28 29 28 29 29 30 30 29 28 26 24 22 20 17 14 10 9 9 12 16 20 23 26 28 30 32 33 34 35 36 37 38 39 39 42 45 48 49 50 51 50 50 49 47 46 46 45 44 42 42 41 42 43 44 43 42 41
39 36 35 34 34 35 34 33 32 30 28 26 23 22 20 19 19 20 21 20 21 21 21 22 24 25 27 28 28 28 29 29 30 31 31 31 30 29 27 25 23 21 18 15 11 8 7 8 11 15 19 22 25 28 31 32 34 35 36 37 38 39 41 43 45 47 48 49 49 49 48 46 45 46 45 44 43 41 41 42 43 43 42 40 38
38 36 35 35 34 34 34 32 30 28 25 23 21 20 19 18 19 20 20 20 20 21 21 21 22 23 25 26 27 27 28 28 30 31 32 32 31 30 28 28 27 25 24 21 19 16 12 8 5 6 10 13 17 21 24 27 30 32 33 35 36 37 39 41 43 45 47 47 47 47 47 45 45 46 45 44 43 41 41 42 43 43 42 40 38
38 36 36 35 34 34 33 31 29 26 23 20 19 18 17 17 19 20 20 21 20 21 21 21 21 22 23 23 24 25 26 27 27 28 29 29 29 29 29 29 29 29 28 27 25 23 21 17 13 8 3 4 8 12 16 20 23 26 28 30 32 34 36 39 41 43 44 45 45 46 45 44 44 45 45 44 43 41 41 42 43 42 42 41 39
37 36 35 34 33 33 32 31 29 26 23 20 18 17 16 16 18 20 20 20 20 21 21 21 21 21 22 23 23 23 24 24 25 25 25 25 26 26 26 26 27 28 28 27 27 26 25 23 21 17 13 8 3 3 7 11 15 18 21 24 27 30 33 36 38 39 41 42 43 44 44 42 42 43 44 44 43 41 41 42 42 41 41 41 39
37 35 34 33 32 31 30 30 28 26 23 21 18 17 16 16 18 19 19 20 20 21 21 21 21 21 21 22 22 22 22 22 24 24 24 23 23 23 23 23 23 24 24 24 24 24 24 23 23 22 20 17 13 8 3 2 6 9 13 17 20 24 27 30 32 34 36 38 39 41 41 39 40 41 42 43 42 40 40 42 42 41 41 40 39
36 35 34 32 30 30 29 29 27 26 24 22 19 17 16 16 17 18 19 20 20 21 21 21 21 21 21 21 21 21 21 21 22 23 24 24 23 23 23 23 23 22 22 21 20 20 20 20 20 20 19 19 17 14 10 5 1 3 7 10 14 17 20 22 24 26 28 30 34 36 36 36 37 39 41 41 40 39 39 40 40 39 39 39 38
35 35 34 32 30 29 29 28 27 25 24 23 21 19 17 17 18 19 19 20 20 21 21 20 20 20 20 20 20 20 20 19 20 22 23 23 23 24 25 25 25 23 22 20 18 17 16 15 15 15 15 15 14 14 12 10 6 2 3 6 9 12 14 16 18 20 23 25 28 31 32 33 34 37 38 38 38 38 38 37 38 38 38 39 38
34 35 34 32 30 28 27 28 26 25 23 22 21 20 19 19 19 19 19 19 20 21 21 21 20 20 20 20 19 19 19 19 19 19 21 22 23 24 25 27 27 25 22 20 18 16 14 12 11 11 12 11 10 10 10 10 8 6 3 0 3 7 10 13 15 18 21 23 26 28 29 30 32 33 34 35 36 38 38 37 37 38 38 38 38
34 33 33 32 30 28 27 27 26 25 23 21 20 19 19 20 19 19 19 19 20 20 21 21 20 20 21 20 19 18 19 18 18 18 19 21 22 24 25 27 27 25 23 20 18 17 14 12 10 9 9 10 10 9 8 8 8 6 4 3 2 2 4 8 12 16 19 21 24 26 27 27 29 31 31 33 36 38 38 37 35 36 38 38 38
36 33 32 32 31 29 27 26 26 25 24 21 20 19 19 19 20 19 19 19 19 19 19 20 20 20 20 21 20 18 18 18 18 17 18 19 21 23 25 26 26 26 24 20 19 18 16 14 11 9 7 9 12 11 10 9 10 8 6 4 2 1 2 5 9 12 15 18 21 24 26 28 29 30 30 33 35 37 39 40 39 39 39 38 37
37 32 30 31 30 29 28 26 26 25 24 23 21 19 19 19 19 19 19 19 19 18 18 19 19 19 19 20 20 19 18 18 17 17 17 17 19 21 23 23 25 26 24 22 20 19 18 15 13 10 8 8 11 13 12 10 11 11 10 8 6 4 3 5 8 9 11 13 16 19 23 27 30 30 31 33 35 37 40 43 43 41 38 37 36
38 33 30 29 29 29 27 26 25 25 24 24 22 20 20 19 18 18 19 18 18 18 17 18 18 18 19 19 20 20 19 18 17 17 16 15 17 20 21 21 23 25 25 23 21 20 19 17 14 12 9 7 9 13 14 13 12 12 12 11 10 9 7 7 9 10 10 10 11 13 16 20 25 29 32 34 36 38 41 44 44 42 38 37 37
38 35 31 29 28 28 27 26 25 24 23 23 23 22 20 19 18 18 17 18 18 17 17 17 17 18 19 19 20 20 19 19 18 18 16 15 16 18 19 19 21 23 24 24 23 21 20 17 16 14 12 9 8 10 13 14 14 15 15 14 13 12 11 10 10 11 12 12 11 12 12 13 17 23 30 34 36 38 41 43 43 42 40 37 35
38 37 33 30 28 27 27 26 24 23 23 23 23 22 21 20 19 18 17 17 17 17 17 17 17 19 20 21 22 21 20 19 19 19 18 16 15 16 17 17 20 22 24 25 24 23 21 19 16 14 13 11 9 8 9 11 14 15 17 17 16 16 15 14 13 13 13 13 14 14 14 12 13 17 24 32 36 37 39 40 39 40 40 36 32
37 37 35 33 30 27 27 26 25 25 23 23 23 22 21 20 20 18 17 17 16 17 17 17 17 19 20 22 23 23 21 20 19 20 19 16 15 15 15 17 19 21 24 25 25 24 23 20 17 13 12 12 10 8 7 7 10 12 15 17 18 18 19 18 18 17 16 15 15 16 16 14 13 14 18 27 33 36 38 38 36 37 39 36 31
36 36 36 35 32 29 27 25 25 25 24 23 22 22 21 21 20 19 18 16 16 16 16 16 17 18 20 21 23 23 22 20 19 19 17 15 15 16 16 18 21 22 25 25 25 23 21 18 16 13 11 11 11 10 9 7 6 8 11 14 16 18 20 20 20 20 19 17 17 17 17 15 14 13 14 20 29 35 39 40 38 37 37 35 32
34 35 36 36 34 33 30 27 25 24 24 23 22 21 21 21 20 19 18 17 16 15 15 16 16 17 19 21 22 23 22 20 19 18 16 15 15 16 17 19 21 23 25 25 24 21 18 15 13 11 10 10 11 11 10 9 7 7 8 10 13 15 18 20 20 20 20 19 18 18 17 16 14 13 12 15 24 33 39 42 42 40 37 35 33
32 33 34 35 35 35 33 31 28 25 24 23 22 20 20 20 20 20 18 18 17 16 16 16 17 18 19 20 21 22 21 19 17 16 15 15 16 16 17 18 20 22 24 24 23 22 18 14 13 11 10 10 11 11 11 11 10 10 9 9 10 12 14 16 18 19 20 20 20 18 18 18 16 13 12 13 19 29 37 39 41 41 38 34 33
30 31 32 33 34 35 34 33 31 28 25 24 22 21 20 19 19 19 18 18 17 17 18 17 17 18 19 19 20 20 19 18 16 14 14 14 15 16 16 17 18 20 22 23 24 23 21 19 16 14 12 11 11 11 11 11 11 11 11 10 10 11 12 14 15 17 18 19 20 20 19 19 17 14 13 13 15 23 32 36 37 38 36 35 35
28 29 30 30 32 33 33 33 33 30 28 25 23 22 21 19 19 18 18 18 17 17 19 19 18 18 18 18 18 18 18 18 16 14 15 15 16 17 17 17 17 19 21 23 23 23 23 21 19 17 15 13 12 11 11 10 10 11 10 9 9 10 11 12 14 15 16 17 19 19 20 20 19 17 15 14 14 18 25 32 34 35 36 36 36
28 28 28 29 29 30 31 32 33 32 31 28 25 23 22 21 19 18 18 18 18 18 18 18 18 18 18 17 16 15 17 18 16 14 15 16 18 18 18 18 17 18 20 22 23 24 24 22 21 19 17 15 14 12 11 11 10 10 9 9 9 10 12 13 14 14 15 16 17 18 19 20 21 20 17 16 15 16 21 27 31 32 34 35 34
30 29 28 28 28 29 29 31 32 33 33 32 29 26 23 21 21 19 18 18 18 18 18 18 17 17 17 17 15 14 15 17 18 17 17 17 18 18 18 18 18 19 22 23 25 26 25 24 23 21 18 17 15 13 12 11 11 10 9 9 11 12 14 16 16 15 14 14 16 17 18 19 21 22 21 19 18 18 21 25 27 28 30 30 30
31 30 29 28 28 28 29 29 30 31 33 33 32 30 26 22 21 20 19 18 18 18 18 18 17 16 17 17 16 15 15 16 18 20 21 22 21 18 17 17 19 21 24 25 27 27 27 26 25 22 21 19 17 15 14 13 13 12 11 12 13 14 16 18 18 16 14 13 13 15 16 17 18 21 23 23 22 21 22 24 26 26 27 27 27
31 31 30 29 28 28 28 28 29 30 31 32 32 32 30 26 23 21 19 18 17 18 18 18 17 16 16 16 16 15 15 15 15 17 19 21 22 22 20 20 21 22 24 25 27 28 28 28 26 24 22 21 19 18 16 15 16 15 14 15 16 16 18 20 19 17 15 13 12 12 13 15 16 18 22 25 26 26 26 27 28 28 28 28 29
31 31 30 29 28 28 27 27 27 28 29 30 31 32 32 30 27 25 22 20 19 18 17 17 17 16 16 16 15 15 15 15 16 16 15 15 18 21 23 24 24 25 25 26 26 27 27 27 26 24 22 20 19 18 17 16 17 16 15 15 16 16 18 20 20 18 16 13 12 11 11 13 14 16 18 22 25 28 29 30 30 31 32 32 32
Wind_Direction
290 305 312 313 312 312 312 311 310 309 308 307 305 304 303 303 302 303 303 303 302 301 299 297 296 294 292 292 290 289 287 285 284 282 282 282 283 284 284 284 283 283 282 281 281 280 279 279 278 279 279 279 276 272 268 264 261 259 258 257 256 256 256 255 252 248 246 245 244 244 245 244 244 243 241 241 242 243 242 243 243 241 239 238 237
310 314 315 314 313 312 311 310 310 310 310 309 309 307 306 305 304 303 303 303 302 301 300 298 296 294 293 293 292 291 290 288 287 285 283 283 283 283 284 284 284 284 283 282 282 281 280 280 279 279 279 280 280 277 272 267 263 260 258 257 256 255 255 255 255 253 251 249 247 245 245 245 244 244 244 243 242 243 242 242 243 244 242 240 239
316 315 314 313 313 312 311 309 309 308 307 307 308 309 309 309 308 308 307 306 305 303 302 300 298 297 297 296 296 296 294 293 290 287 285 284 283 283 284 284 283 283 283 283 282 282 281 280 280 279 279 280 280 280 276 271 266 262 259 257 256 255 254 254 254 254 254 253 251 249 248 248 247 246 246 246 245 245 243 241 242 244 245 243 242
316 315 316 316 315 314 313 311 310 308 306 305 306 307 308 309 311 312 311 310 308 307 306 305 303 302 301 300 299 298 296 295 293 290 288 286 285 284 284 283 282 282 282 281 280 280 279 279 279 279 278 278 279 279 277 272 267 263 260 257 255 254 253 253 252 252 252 252 253 252 252 252 251 250 250 249 248 247 245 243 241 241 243 244 243
318 318 318 319 319 317 316 315 314 312 311 310 309 308 308 309 311 312 311 311 310 309 309 309 308 306 305 303 301 299 297 295 293 291 289 287 285 284 283 282 280 280 279 278 277 276 275 275 275 276 276 276 276 276 275 272 267 263 260 257 255 253 252 251 251 251 251 251 251 251 252 254 254 254 253 252 251 249 247 246 244 243 243 243 242
325 324 323 323 321 318 316 315 315 314 313 311 311 311 311 311 311 311 310 309 307 307 307 308 309 308 307 305 302 298 293 289 286 285 284 284 283 282 280 278 276 275 274 273 272 271 270 270 270 270 271 271 271 271 271 269 266 262 259 257 255 253 252 250 249 249 249 249 249 249 250 251 253 254 254 254 253 251 250 248 246 245 245 244 243
327 326 324 321 318 316 316 315 314 313 311 310 310 310 311 311 311 311 310 308 305 303 303 304 304 304 304 303 300 296 290 286 283 280 279 280 281 281 281 279 275 272 268 266 264 264 264 263 263 263 264 265 265 265 265 265 263 260 257 255 254 253 252 251 249 248 248 248 248 248 248 248 249 251 252 253 253 253 252 250 248 246 245 245 244
322 320 318 316 316 316 316 315 314 311 310 310 309 310 311 311 310 309 309 307 305 302 299 298 298 297 297 296 296 295 293 291 289 286 283 281 280 280 281 281 278 274 269 263 258 256 256 256 257 257 257 258 259 259 260 259 258 257 254 252 251 251 251 250 249 248 248 247 247 247 247 246 246 247 248 250 251 252 251 251 249 247 245 244 244
317 316 315 317 318 318 317 316 315 314 312 312 312 310 309 308 307 306 305 303 301 298 294 293 292 289 289 290 290 291 292 293 293 292 290 288 285 282 280 280 279 277 273 266 258 253 252 251 251 251 252 252 253 254 255 255 255 253 251 249 248 248 248 249 249 248 248 247 247 247 247 246 246 246 246 246 247 248 249 249 248 247 246 244 243
319 319 321 323 322 321 321 321 320 318 315 314 312 309 307 306 305 305 304 302 299 295 291 287 285 283 283 283 282 284 288 290 292 292 292 291 290 287 285 282 278 276 274 271 264 257 252 249 247 246 247 248 249 250 251 252 251 250 248 247 246 246 246 247 247 248 248 248 247 247 247 247 247 246 246 245 245 246 246 246 246 245 245 244 242
325 328 330 330 328 326 323 321 318 316 313 310 308 307 306 305 305 305 305 302 298 294 290 284 280 278 278 276 277 281 284 285 287 289 290 291 290 289 289 286 281 276 273 271 268 263 257 252 248 246 244 244 245 246 247 248 248 247 246 244 244 244 244 245 245 246 247 247 247 247 247 247 247 247 246 246 246 245 245 244 244 243 243 243 242
334 335 334 332 329 325 322 319 317 315 311 308 307 306 306 305 305 305 304 302 298 292 288 283 280 277 275 275 275 278 280 281 283 285 287 289 289 290 289 286 282 277 273 268 265 264 262 257 252 249 246 243 242 243 245 246 246 246 244 243 243 243 243 243 244 244 245 246 246 247 247 246 246 246 246 246 246 246 246 245 244 244 243 241 241
338 336 333 330 327 325 322 320 318 316 312 310 310 309 307 305 304 304 304 302 298 291 284 281 280 277 275 275 274 275 277 279 282 283 285 287 289 289 288 286 283 278 274 269 263 260 259 259 256 252 248 245 242 242 243 243 244 244 243 241 241 242 243 243 242 242 243 244 245 245 246 246 246 245 245 246 246 246 247 247 246 245 244 241 240
338 336 333 330 329 327 324 322 321 317 315 315 315 313 310 307 304 304 302 299 295 293 287 280 277 275 274 274 274 275 276 278 280 282 284 286 287 288 289 288 285 281 276 271 266 259 255 255 255 253 249 246 244 242 242 241 241 241 240 240 240 241 242 242 242 241 240 241 243 245 245 245 245 246 245 245 245 246 246 247 247 247 247 244 242
337 336 335 333 331 329 326 325 325 321 320 321 320 317 315 311 307 304 300 296 295 298 297 289 281 277 274 274 274 275 276 278 280 282 284 285 286 288 289 289 288 284 279 273 268 261 254 251 251 251 249 246 244 243 243 242 240 239 238 239 240 240 241 242 242 241 239 239 241 243 245 244 244 245 245 245 245 246 246 246 247 248 249 247 245
336 336 336 334 333 332 329 329 330 328 327 327 325 321 318 314 310 306 302 299 298 300 301 297 290 285 281 280 279 279 280 281 282 283 284 285 286 287 288 288 287 284 281 274 266 260 254 248 247 248 248 246 243 242 242 243 241 239 238 238 239 240 241 241 241 241 239 239 240 242 244 244 243 243 244 245 245 246 247 246 247 248 250 251 249
338 338 338 337 336 336 333 333 333 333 332 332 329 326 322 317 314 310 306 303 301 302 304 303 299 295 292 289 286 285 285 285 285 285 285 286 286 286 286 285 284 282 279 273 266 259 253 248 246 246 247 246 243 239 239 241 241 241 240 239 240 240 240 240 240 241 240 239 240 241 243 244 243 242 243 243 244 245 246 247 247 247 249 252 253
340 340 341 340 339 339 337 335 335 335 336 336 334 332 328 323 319 316 314 310 307 308 310 309 305 301 299 297 294 291 289 288 287 286 286 286 285 284 283 281 280 278 276 271 265 258 253 249 246 245 245 244 242 238 236 238 239 241 241 242 242 241 240 240 239 240 239 239 240 241 243 244 244 243 243 243 243 244 245 246 247 247 247 250 253
343 343 343 342 341 341 340 338 339 339 340 341 341 340 337 334 331 327 324 322 320 319 319 317 312 309 308 306 303 300 297 296 294 293 291 290 288 286 283 280 278 276 274 269 262 257 253 249 246 245 244 242 239 236 234 235 237 238 240 242 243 242 240 239 238 239 239 239 240 241 242 244 245 245 244 243 243 244 245 246 247 247 246 246 248
345 345 347 347 345 344 343 343 345 345 345 346 346 345 344 343 342 339 337 336 336 336 335 333 329 325 323 321 319 316 313 311 309 306 303 300 296 292 288 284 279 275 272 267 261 256 253 250 247 245 244 241 236 233 233 233 234 236 238 239 241 242 241 239 238 239 239 239 240 241 242 243 245 247 246 245 245 245 246 247 248 247 245 244 245
347 348 349 349 347 347 348 348 348 348 348 347 347 347 346 347 348 349 349 350 352 351 349 347 344 340 338 336 332 329 326 324 322 320 317 313 309 303 297 291 285 278 272 267 261 256 252 251 248 245 244 241 236 232 232 232 233 234 235 237 239 241 241 239 238 238 239 240 241 242 242 243 244 247 248 247 246 245 246 248 248 247 246 243 244
351 350 349 349 349 350 351 350 350 349 348 347 347 347 348 351 354 356 358 0 2 1 359 357 354 351 349 347 345 342 339 336 333 329 327 324 322 318 311 303 294 286 276 268 262 256 251 249 247 246 245 243 239 235 233 232 233 234 235 235 237 239 239 238 237 237 237 238 240 242 243 243 244 247 248 248 247 246 246 247 246 246 247 245 244
352 351 350 350 351 352 352 352 352 350 349 348 348 349 352 357 1 4 6 9 9 7 6 5 4 3 2 1 358 356 352 349 346 342 340 336 333 330 325 319 310 298 285 273 264 257 251 248 247 246 245 244 242 239 235 234 235 235 235 235 237 238 237 236 234 234 235 236 237 239 240 242 243 246 248 248 248 247 246 245 244 244 246 246 245
353 352 352 352 352 353 354 354 353 352 351 350 351 354 357 1 7 12 15 16 14 13 13 14 15 14 12 10 7 5 3 2 0 358 355 350 346 342 338 335 329 317 301 284 270 261 254 250 248 247 246 245 244 242 238 237 237 237 238 239 240 239 237 235 233 233 233 233 235 237 239 240 241 243 245 246 246 246 245 244 243 243 245 246 245
355 354 354 354 353 355 356 356 356 354 352 353 355 358 1 5 14 20 21 20 20 20 21 22 22 20 18 16 12 11 10 10 10 9 8 5 3 0 356 352 349 341 327 305 285 271 262 257 253 250 248 246 245 244 243 242 242 243 244 244 244 241 237 235 233 232 232 233 234 237 239 240 240 240 242 242 242 243 243 242 242 243 245 245 245
355 354 355 355 356 358 359 358 358 356 354 356 359 2 5 11 19 23 23 24 24 25 26 26 27 25 23 21 18 15 15 15 16 16 15 15 14 15 14 11 10 8 360 346 321 293 275 267 260 256 253 250 248 247 246 246 247 247 248 247 245 241 237 235 234 233 232 233 235 237 239 240 239 239 239 240 240 241 241 241 241 243 244 244 242
354 354 356 357 357 359 0 0 1 358 355 358 2 6 12 18 22 22 22 23 23 24 25 25 26 25 24 23 21 19 18 18 18 18 19 19 20 22 24 24 25 26 25 22 13 356 326 292 271 263 259 255 253 251 249 250 249 249 249 247 244 240 236 234 234 233 233 233 235 237 239 238 236 237 238 239 240 241 240 240 240 241 242 241 239
352 354 357 358 359 360 1 2 3 1 359 1 4 9 16 20 21 20 20 20 20 21 21 22 23 23 23 23 21 20 19 19 19 20 21 21 23 25 29 31 33 35 36 37 36 34 29 16 335 284 265 256 253 250 248 248 247 247 246 245 243 239 235 233 232 233 234 234 236 237 239 238 235 235 236 238 239 240 239 238 238 238 239 238 236
353 355 357 359 359 359 1 3 5 4 3 5 7 11 16 16 17 19 18 17 17 18 18 18 18 19 19 20 19 18 18 17 18 19 20 22 25 28 31 33 34 35 36 37 40 41 41 40 36 27 349 275 254 247 246 245 244 244 244 243 242 239 237 235 234 234 235 236 237 239 240 239 236 235 236 237 238 238 237 236 236 236 236 234 234
354 354 357 359 358 358 0 2 5 6 6 7 8 11 14 13 14 16 15 13 13 13 14 14 14 14 15 15 14 15 15 15 15 17 19 21 24 27 30 31 32 32 32 33 35 36 38 40 41 41 40 34 10 272 251 246 245 245 243 242 241 239 238 237 237 238 239 239 239 240 241 240 237 235 235 236 237 237 236 234 234 235 234 232 232
353 354 358 359 358 358 360 2 4 5 6 7 6 7 9 7 9 12 9 7 7 9 10 10 9 10 12 11 9 9 10 13 15 15 15 17 19 21 22 24 25 26 27 28 29 30 32 34 37 40 40 40 39 37 28 250 240 240 239 239 238 238 238 238 240 241 242 242 242 242 242 241 237 235 235 236 237 237 235 233 233 233 232 229 230
352 355 357 358 358 358 359 2 3 3 4 5 4 4 4 3 6 8 4 1 3 5 6 5 4 5 6 6 6 6 7 12 14 13 12 13 13 13 13 14 14 14 15 18 21 23 25 27 29 33 35 35 36 36 39 46 95 209 222 227 229 231 233 234 236 237 239 241 242 242 242 239 236 235 235 237 237 234 232 232 232 230 229 228 228
352 354 355 356 357 357 358 0 1 2 3 2 1 0 360 1 5 4 0 358 0 2 2 1 0 0 0 360 1 3 6 9 10 9 10 11 11 10 9 7 6 4 3 5 7 11 15 18 18 21 24 28 30 29 30 34 41 69 201 214 218 222 224 227 229 231 232 235 238 241 242 239 237 237 237 238 236 232 228 227 226 225 225 227 229
351 351 352 354 355 356 357 358 358 360 1 360 359 357 356 359 1 0 358 356 357 358 358 357 356 356 357 356 356 359 3 5 6 5 5 6 7 7 5 3 2 1 360 358 357 357 358 1 4 4 5 9 15 16 14 14 19 25 28 246 223 226 228 229 229 230 232 233 236 238 240 239 239 239 238 235 233 230 225 220 220 223 225 227 230
349 348 349 351 353 355 355 355 355 357 357 356 356 356 355 356 356 355 353 353 353 353 351 351 352 352 354 353 351 353 357 360 1 360 358 359 2 3 2 2 3 4 3 0 356 354 350 348 349 347 342 341 342 349 351 346 349 360 12 21 8 286 255 245 237 234 233 232 233 234 234 235 235 235 234 231 230 229 222 214 218 225 227 227 229
349 347 347 348 350 352 353 353 353 353 353 353 353 354 356 356 354 351 350 350 350 350 348 347 348 349 352 352 349 348 350 352 354 354 353 354 357 360 2 4 5 6 6 3 358 356 354 350 347 339 327 319 317 323 327 324 325 326 327 335 335 326 305 273 255 244 239 237 236 235 234 233 233 232 231 230 230 227 219 213 216 222 223 226 229
351 347 344 345 348 349 349 350 350 349 349 349 349 350 353 355 353 350 349 348 348 348 347 346 345 348 352 352 350 347 346 348 348 348 348 349 354 358 0 3 6 7 7 5 359 356 355 356 355 348 332 309 299 302 306 305 305 305 304 306 302 290 285 281 271 260 250 248 246 245 242 240 236 233 229 229 230 226 219 216 218 219 221 226 230
353 349 344 343 345 346 347 347 347 346 345 345 345 345 348 351 352 350 349 347 346 345 346 345 345 348 352 354 354 351 348 349 347 343 343 347 353 356 357 1 6 8 8 6 2 360 358 1 6 3 351 325 295 288 289 287 286 287 288 290 290 287 279 272 272 271 267 265 262 260 256 250 244 237 230 228 228 225 221 219 219 220 222 227 229
355 353 348 343 342 344 345 344 343 343 342 340 340 342 344 346 347 348 349 348 347 346 345 346 347 349 351 354 357 356 353 353 350 344 342 346 350 352 354 358 3 6 6 4 4 3 1 3 9 10 3 352 322 294 285 281 277 277 279 280 281 281 278 270 266 269 272 275 277 276 271 263 254 243 234 229 226 224 221 219 219 221 223 225 227
355 356 353 347 342 341 342 342 341 341 340 338 337 337 340 343 343 345 346 347 348 348 347 348 348 349 351 353 355 355 353 352 351 346 343 344 345 348 352 357 0 2 2 1 2 3 0 0 4 6 5 2 352 323 298 285 277 274 274 276 278 279 279 276 270 268 270 273 277 280 279 276 266 251 239 231 225 222 219 218 218 221 222 222 223
354 357 358 354 347 340 339 340 340 340 339 337 334 333 336 340 341 343 344 344 345 346 348 349 348 347 349 350 351 352 351 350 349 346 343 342 341 346 353 357 358 359 359 358 359 360 357 354 354 357 2 5 7 0 338 306 287 278 273 273 274 274 274 274 272 271 269 269 272 274 278 280 274 262 246 233 226 220 216 213 215 220 221 219 220
353 357 359 359 355 346 340 338 338 338 337 335 333 332 334 336 337 339 342 343 343 343 344 346 345 345 346 347 348 349 350 352 351 346 343 342 344 349 356 354 354 357 357 356 357 355 352 349 349 351 356 359 2 5 1 344 317 293 279 274 273 271 271 270 270 270 268 266 266 266 270 275 275 271 258 237 226 220 214 210 212 217 219 219 220
353 356 358 0 0 355 347 340 336 335 335 334 332 331 333 334 333 334 337 339 339 339 339 340 340 340 341 341 343 345 348 353 355 349 344 346 349 352 354 351 352 355 355 353 355 354 351 349 351 354 357 356 352 352 354 351 344 325 299 286 279 275 273 271 270 269 266 263 261 260 262 266 269 271 268 247 228 221 216 213 213 215 218 219 222
352 355 357 359 2 1 356 349 341 334 331 332 332 331 332 333 332 332 332 334 334 333 333 333 333 333 334 335 337 340 344 350 355 352 347 348 350 350 350 349 350 352 351 350 352 354 355 355 355 356 0 358 351 347 346 342 337 330 318 304 293 286 283 280 277 273 269 263 259 255 254 257 259 262 265 255 234 223 219 217 215 216 218 220 224
351 354 356 358 1 2 1 357 350 341 333 330 330 333 333 332 331 331 332 332 333 333 333 333 331 331 331 332 333 336 339 344 349 351 348 346 347 347 346 346 346 347 347 348 350 351 354 355 354 353 353 351 349 346 342 335 328 323 316 310 305 299 295 293 289 284 277 270 261 253 248 247 249 250 251 250 239 225 219 217 215 214 216 221 226
349 352 354 357 360 2 3 2 359 353 345 335 330 331 334 332 329 330 332 335 336 338 339 337 336 335 335 334 333 333 334 336 339 344 344 342 342 342 341 341 342 342 344 347 349 349 350 351 351 348 343 340 342 344 339 332 324 316 308 308 311 310 306 302 297 291 286 280 270 257 246 240 240 240 239 238 236 225 217 215 214 214 217 222 226
348 350 352 354 357 0 3 4 4 2 357 349 339 333 332 332 331 330 332 335 338 341 341 340 340 342 341 338 334 332 332 331 332 337 340 338 337 337 336 335 336 337 341 346 348 347 347 347 347 345 338 332 333 336 335 329 318 306 303 309 316 319 319 313 305 296 289 283 278 267 253 240 234 233 232 228 225 220 215 213 213 216 219 223 225
348 348 349 351 353 357 1 4 5 5 3 359 352 343 335 332 331 331 331 333 337 340 339 337 342 346 345 342 340 336 334 332 330 331 334 334 333 333 332 330 332 335 339 343 344 344 344 343 341 339 334 328 326 327 327 320 307 298 302 311 315 319 323 320 313 304 293 283 276 271 263 249 235 228 227 225 219 215 213 212 213 215 219 222 224
350 348 348 348 350 353 357 1 4 5 5 4 360 354 346 338 333 331 330 331 332 334 333 332 336 341 342 342 343 340 336 334 331 330 330 330 331 333 333 333 334 336 338 340 340 340 339 337 335 332 327 323 320 320 321 316 310 308 310 312 313 317 322 322 317 310 302 290 276 266 261 256 244 230 224 223 220 216 214 212 212 214 217 219 221
353 350 348 348 348 350 353 356 360 3 4 4 2 0 356 350 342 335 332 330 329 329 327 327 329 333 335 337 339 339 338 336 333 330 329 329 330 333 335 336 337 338 337 336 337 336 334 333 331 327 322 318 313 314 318 317 314 313 311 310 311 315 320 321 319 314 308 300 286 268 254 250 247 237 228 223 221 219 217 215 214 216 218 220 221
355 352 350 349 349 349 350 353 356 359 2 3 2 1 1 359 354 347 339 332 329 327 324 323 324 327 330 332 334 336 336 337 336 334 332 329 329 330 333 334 334 335 335 335 335 334 331 329 326 322 318 312 306 306 312 313 311 310 308 305 305 310 314 317 317 315 309 299 290 278 256 242 239 237 233 229 225 223 221 218 217 217 218 219 221